TimeEST,TemperatureF,Dew PointF,Humidity,Sea Level PressureIn,VisibilityMPH,Wind Direction,Wind SpeedMPH,Gust SpeedMPH,PrecipitationIn,Events,Conditions,WindDirDegrees,DateUTC
12:56 AM,55.0,55.0,100,30.16,8.0,NNE,21.9,28.8,N/A,,Overcast,20,2012-11-19 05:56:00
1:56 AM,55.0,55.0,100,30.13,7.0,North,21.9,29.9,0.00,Rain,Light Rain,10,2012-11-19 06:56:00
2:56 AM,55.0,55.0,100,30.14,8.0,North,19.6,27.6,0.00,,Overcast,10,2012-11-19 07:56:00
3:56 AM,55.0,55.0,100,30.12,8.0,North,24.2,33.4,N/A,,Overcast,10,2012-11-19 08:56:00
4:56 AM,54.0,54.0,100,30.12,8.0,NNE,19.6,31.1,N/A,,Overcast,20,2012-11-19 09:56:00
5:56 AM,54.0,54.0,100,30.13,8.0,North,18.4,29.9,N/A,,Overcast,10,2012-11-19 10:56:00
6:56 AM,54.0,54.0,100,30.13,7.0,North,19.6,26.5,0.00,,Overcast,10,2012-11-19 11:56:00
7:56 AM,53.1,53.1,100,30.12,5.0,North,21.9,32.2,0.00,Rain,Light Rain,10,2012-11-19 12:56:00
8:56 AM,54.0,54.0,100,30.12,8.0,North,23.0,33.4,0.00,,Overcast,10,2012-11-19 13:56:00
9:56 AM,54.0,54.0,100,30.11,8.0,North,23.0,31.1,N/A,,Overcast,10,2012-11-19 14:56:00
10:56 AM,55.0,54.0,96,30.12,6.0,North,23.0,38.0,N/A,,Overcast,10,2012-11-19 15:56:00
11:56 AM,55.0,54.0,96,30.11,8.0,North,21.9,32.2,N/A,,Overcast,10,2012-11-19 16:56:00
12:56 PM,55.0,53.1,93,30.09,7.0,North,20.7,35.7,N/A,,Overcast,360,2012-11-19 17:56:00
1:56 PM,55.9,54.0,93,30.07,7.0,North,18.4,26.5,N/A,,Overcast,360,2012-11-19 18:56:00
2:09 PM,55.4,53.6,94,30.06,7.0,North,23.0,34.5,N/A,,Overcast,10,2012-11-19 19:09:00
2:56 PM,55.9,54.0,93,30.06,7.0,North,21.9,31.1,N/A,,Overcast,10,2012-11-19 19:56:00
3:56 PM,55.0,54.0,96,30.06,7.0,North,23.0,32.2,N/A,,Overcast,10,2012-11-19 20:56:00
4:51 PM,53.6,51.8,94,30.07,6.0,North,25.3,34.5,N/A,,Overcast,10,2012-11-19 21:51:00
4:56 PM,53.1,52.0,96,30.08,7.0,North,20.7,34.5,N/A,,Overcast,10,2012-11-19 21:56:00
5:56 PM,53.1,52.0,96,30.09,9.0,North,19.6,28.8,N/A,,Overcast,360,2012-11-19 22:56:00
6:27 PM,53.6,51.8,94,30.08,10.0,North,19.6,29.9,N/A,,Overcast,10,2012-11-19 23:27:00
6:56 PM,53.1,51.1,93,30.09,10.0,North,21.9,32.2,N/A,,Overcast,10,2012-11-19 23:56:00
7:56 PM,52.0,51.1,97,30.11,10.0,North,20.7,26.5,N/A,,Overcast,360,2012-11-20 00:56:00
8:56 PM,51.1,51.1,100,30.11,10.0,North,17.3,23.0,N/A,,Overcast,360,2012-11-20 01:56:00
9:22 PM,51.8,51.8,100,30.09,10.0,North,15.0,24.2,N/A,,Overcast,10,2012-11-20 02:22:00
9:56 PM,51.1,51.1,100,30.09,10.0,North,19.6,28.8,N/A,,Overcast,10,2012-11-20 02:56:00
10:56 PM,51.1,51.1,100,30.08,7.0,North,16.1,24.2,N/A,,Overcast,10,2012-11-20 03:56:00
11:56 PM,50.0,50.0,100,30.06,8.0,NNE,16.1,26.5,N/A,,Overcast,20,2012-11-20 04:56:00